World > North America > United States > New York

Hourly Taunton, NY Regional Weather

Feedback E-mail the Weather

Latest News

Taunton, NY Weather Maps

°F °C°F °C
Taunton Weather Map
UTC Time: 5/26/2022, 07:37
Your Time:

Taunton, NY Regional Weather

Expires:202205260800;;596506
ASUS41 KBGM 260710
RWRBGM

REGIONAL WEATHER ROUNDUP
NATIONAL WEATHER SERVICE BINGHAMTON NY
300 AM EDT THU MAY 26 2022

Note: "fair" indicates few or no clouds below 12,000 feet with no
significant weather and/or obstructions to visibility.

* = Station(s) that does not report precipitation, such as rain, 
snow, etc, also no thunder or fog.


NYZ009-015>018-022>025-036-037-044>046-055>057-062-260800
...Central New York...
  
CITY           SKY/WX    TMP DP  RH WIND       PRES   REMARKS
Binghamton     CLOUDY    56  46  69 S13G21    30.22F                  
Cortland       FAIR      59  46  63 S8        30.20F                  
Dansville      MOCLDY    64  49  57 SE12      30.10F                  
Elmira         MOCLDY    62  45  53 S8        30.17F                  
Endicott       SUNNY     59  46  63 S6        30.21F                  
Ithaca         CLOUDY    60  49  66 SE13      30.18F                  
Hamilton       MOCLDY    59  45  58 S15G21    30.21F                  
Monticello     CLOUDY    52  43  71 SE3       30.30F                  
Norwich        PTCLDY    57  46  67 S10       30.25F                  
Oneonta        CLEAR     55  45  67 CALM      30.25F                  
Penn Yan       CLOUDY    64  45  49 S15G29    30.12F                  
Rome           CLOUDY    64  49  57 SE7       30.21F                  
Seneca Falls   SUNNY     63  48  59 S16       30.13F                  
Sidney         MOCLDY    57  46  67 SW3       30.24F                  
Skaneateles    FAIR      63  50  63 S10G18    30.14F                  
Syracuse       CLOUDY    64  48  56 S9        30.16F                  
$$
 

SKY/WX - Weather  TMP - Temperature  DP - Dew Point  RH - Humidity
WIND - Wind Direction/Speed PRES - Barometric Pressure VSB - Visibility
WCI - Wind Chill Index E13G22 Wind - East Wind 13 mph/Gusts of 22 mph

Trending Headlines

Taunton Radar Loop



Taunton Quick Facts


National Two Day Weather Forecast


E-mail the Taunton Weather Forecast

Voice your opinion or tell us about page issues...